Miscellaneous Local Product
Issued by NWS Hastings, NE

Home | Current Version | Previous Version | Text Only | Print | Product List | Glossary On
Versions: 1 2 3 4 5 6 7 8 9 10 11 12 13 14 15 16 17 18 19 20 21 22 23 24 25 26 27 28 29 30 31 32 33 34 35 36 37 38 39 40 41 42 43 44 45 46 47 48 49 50
000
AXUS43 KGID 030202
MISGRI

GID CWA HOURLY WEATHER ROUNDUP
NATIONAL WEATHER SERVICE HASTINGS NE
900 PM CDT SUN AUG 02 2015

NOTE: "FAIR" INDICATES FEW OR NO CLOUDS BELOW 12,000 FEET WITH NO
SIGNIFICANT WEATHER AND/OR OBSTRUCTIONS TO VISIBILITY.

...SOUTH CENTRAL NEBRASKA...

CITY           SKY/WX    TMP DP  RH WIND       PRES   REMARKS
GRAND ISLAND   PTCLDY    71  64  78 E7        29.87R
HASTINGS       CLOUDY    74  58  57 NW5       29.87S
KEARNEY        MOCLDY    79  54  41 S8        29.89S
ORD            PTCLDY    73  64  73 E5        29.88S
YORK           MOCLDY    79  73  83 N5        29.86R
AURORA         MOCLDY    74  66  76 N8        29.87F
LEXINGTON      MOCLDY    74  58  58 SE7       29.90F
HOLDREGE       CLOUDY    74  55  49 SW3       29.90F
HEBRON         CLOUDY    81  71  71 CALM      29.83S

...NEBRASKA PANHANDLE...

CITY           SKY/WX    TMP DP  RH WIND       PRES   REMARKS
CHADRON        CLEAR     80  57  45 NE14      29.94R
ALLIANCE       MOCLDY    76  58  53 E3        29.97R
SCOTTSBLUFF    MOCLDY    80  59  48 E5        29.96S
SIDNEY         MOCLDY    77  53  43 E8        30.01R

...WESTERN AND NORTH CENTRAL NEBRASKA...

CITY           SKY/WX    TMP DP  RH WIND       PRES   REMARKS
VALENTINE      NOT AVBL
AINSWORTH      CLEAR     74  65  73 E5        29.95R
ONEILL         CLEAR     77  66  68 NE6       29.91R
BROKEN BOW     PTCLDY    71  63  75 CALM      29.91R
IMPERIAL       MOCLDY    77  53  43 SE10      29.95R
NORTH PLATTE   MOCLDY    70  62  76 E8        29.92R
MCCOOK         MOCLDY    77  58  51 SE8       29.92S

...EASTERN NEBRASKA...

CITY           SKY/WX    TMP DP  RH WIND       PRES   REMARKS
NORFOLK        MOCLDY    82  68  62 NE5       29.87R
TEKAMAH        CLEAR     78  73  84 N8        29.82R
COLUMBUS       MOCLDY    77  66  69 CALM      29.86R
ALBION         MOCLDY    79  68  67 N8        29.88F
OMAHA EPPLEY   PTCLDY    82  75  79 NW6       29.81R
MILLARD        MOCLDY    87  76  69 N5        29.82R HX  97
LINCOLN        CLOUDY    85  72  65 NE10      29.82R HX  91
NEBRASKA CITY  CLOUDY    80  73  78 SW6       29.81S
BEATRICE       CLOUDY    83  75  76 W5        29.83R HX  91
FALLS CITY     CLOUDY    84  74  71 SW9       29.80F HX  91

...NORTHERN KANSAS...

CITY           SKY/WX    TMP DP  RH WIND       PRES   REMARKS
GOODLAND       CLOUDY    82  57  42 E8        29.98R
HILL CITY      CLOUDY    84  56  38 E3        29.91R
NORTON         CLEAR     79  48  34 W9        29.91F
PHILLIPSBURG   CLEAR     84  54  34 NW5       29.87F
SMITH CENTER   CLEAR     81  57  44 N10       29.87F
HAYS           PTCLDY    84  64  51 S9        29.90R
RUSSELL        PTCLDY    84  67  56 S7        29.89R
CONCORDIA      CLOUDY    84  68  58 S12       29.83F
SALINA         PTCLDY    85  69  58 S6        29.85S
TOPEKA         PTCLDY    86  72  62 S5        29.84S HX  92



USA.gov is the U.S. government's official web portal to all federal, state and local government web resources and services.